Date String (YYYY-MM-DD hh:mm:ss) UTC,Instrument flags,Ambient pressure (hPa),Sample flow (lpm),Bypass flow (lpm),Sample temperature (°C),Ambient temperature (°C),ASC tube jacket temperature (°C),LED temperature (°C),Box temperature (°C),Sample RH (%),Span deviation,Mass concentration (μg/m³),Mass concentration (μg/m³),Mass concentration (μg/m³)
DateTimeUTC,F1_M11,P_M11,Q1_M11,Q2_M11,T1_M11,T2_M11,T3_M11,T4_M11,T5_M11,U1_M11,ZSPAN_M11,X0_M11,X2_M11,X1_M11
2022-04-27 23:00:00,,0820.0,5.00,0.00,28.8,28.2,00.0,37.8,30.5,14.5,-001.2,0029.78,0009.99,0005.33
2022-04-27 23:01:00,,0820.0,4.99,0.00,28.7,28.2,00.0,37.8,30.5,14.6,-002.0,0029.79,0009.97,0005.32
2022-04-27 23:02:00,,0820.0,5.02,0.00,28.7,28.2,00.0,37.8,30.5,14.6,-002.2,0029.29,0009.91,0005.31
2022-04-27 23:03:00,,0819.9,5.00,0.00,28.8,28.2,00.0,37.8,30.5,14.5,-000.7,0026.87,0009.89,0005.28
2022-04-27 23:04:00,,0819.9,5.00,0.00,28.7,28.2,00.0,37.8,30.5,14.5,0000.4,0027.39,0009.89,0005.26
2022-04-27 23:05:00,,0820.0,4.99,0.00,28.8,28.2,00.0,37.8,30.5,14.6,0001.3,0028.56,0009.87,0005.25
2022-04-27 23:06:00,,0820.0,5.01,0.00,28.8,28.2,00.0,37.8,30.5,14.7,0001.6,0028.70,0009.87,0005.24
2022-04-27 23:07:00,,0819.9,5.00,0.00,28.7,28.2,00.0,37.8,30.5,14.7,0002.3,0027.85,0009.86,0005.21
2022-04-27 23:08:00,,0820.1,4.99,0.00,28.8,28.2,00.0,37.8,30.5,14.7,0001.8,0027.85,0009.91,0005.20
2022-04-27 23:09:00,,0820.1,4.99,0.00,28.8,28.3,00.0,37.8,30.5,14.7,0001.3,0028.07,0009.91,0005.19
2022-04-27 23:10:00,,0820.0,5.02,0.00,28.8,28.1,00.0,37.8,30.4,14.6,0000.6,0028.59,0009.93,0005.17
2022-04-27 23:11:00,,0820.0,4.99,0.00,28.7,26.2,00.0,37.8,30.1,14.4,0000.6,0027.96,0009.90,0005.16
2022-04-27 23:12:00,,0820.1,4.99,0.00,28.7,25.6,00.0,37.7,30.1,14.5,0001.0,0027.69,0009.91,0005.15
2022-04-27 23:13:00,,0820.0,5.01,0.00,28.6,25.9,00.0,37.7,30.1,14.6,0000.7,0027.38,0009.87,0005.13
2022-04-27 23:14:00,,0820.1,5.01,0.00,28.6,26.3,00.0,37.7,30.2,14.6,0000.2,0026.75,0009.69,0005.12
2022-04-27 23:15:00,,0820.2,4.98,0.00,28.6,26.6,00.0,37.6,30.2,14.7,0000.8,0025.65,0009.64,0005.10
2022-04-27 23:16:00,,0820.3,5.01,0.00,28.6,26.8,00.0,37.6,30.2,14.9,0000.1,0024.64,0009.64,0005.09
2022-04-27 23:17:00,,0820.2,5.00,0.00,28.6,27.1,00.0,37.6,30.2,15.0,0000.2,0023.60,0009.58,0005.09
2022-04-27 23:18:00,,0820.2,4.99,0.00,28.6,27.3,00.0,37.6,30.2,15.0,0000.5,0023.16,0009.55,0005.09
2022-04-27 23:19:00,,0820.2,5.01,0.00,28.5,27.4,00.0,37.6,30.2,15.1,0001.0,0022.94,0009.48,0005.08
2022-04-27 23:20:00,,0820.2,4.99,0.00,28.5,27.5,00.0,37.6,30.3,15.0,0001.3,0022.64,0009.35,0005.06
2022-04-27 23:21:00,,0820.2,5.00,0.00,28.5,27.5,00.0,37.5,30.2,15.0,0001.2,0022.26,0009.32,0005.05
2022-04-27 23:22:00,,0820.3,5.01,0.00,28.5,27.6,00.0,37.5,30.2,15.0,0001.4,0022.67,0009.39,0005.04
2022-04-27 23:23:00,,0820.2,4.99,0.00,28.5,27.6,00.0,37.5,30.2,15.1,0001.0,0022.94,0009.38,0005.05
2022-04-27 23:24:00,,0820.3,4.99,0.00,28.5,27.7,00.0,37.5,30.2,15.1,0002.3,0023.51,0009.38,0005.05
2022-04-27 23:25:00,,0820.3,5.01,0.00,28.4,27.7,00.0,37.5,30.2,15.3,0002.1,0024.10,0009.38,0005.03
2022-04-27 23:26:00,,0820.2,5.00,0.00,28.4,27.7,00.0,37.5,30.1,15.2,0002.1,0024.65,0009.40,0005.04
2022-04-27 23:27:00,,0820.3,4.99,0.00,28.4,27.7,00.0,37.5,30.2,15.1,0002.3,0024.78,0009.37,0005.03
2022-04-27 23:28:00,,0820.2,5.01,0.00,28.4,27.7,00.0,37.5,30.1,15.1,0002.9,0025.07,0009.37,0005.02
2022-04-27 23:29:00,,0820.3,4.99,0.00,28.4,27.7,00.0,37.5,30.1,15.1,0002.7,0024.96,0009.28,0005.01
2022-04-27 23:30:00,,0820.2,5.02,0.00,28.4,27.7,00.0,37.5,30.1,15.2,0003.0,0026.19,0009.28,0004.99
2022-04-27 23:31:00,,0820.3,4.99,0.00,28.4,27.7,00.0,37.4,30.1,15.3,0002.5,0026.78,0009.29,0004.99
2022-04-27 23:32:00,,0820.2,5.02,0.00,28.4,27.7,00.0,37.4,30.1,15.2,0003.1,0027.03,0009.25,0004.99
2022-04-27 23:33:00,,0820.2,4.99,0.00,28.4,27.8,00.0,37.4,30.1,15.2,0003.3,0027.48,0009.22,0004.99
2022-04-27 23:34:00,,0820.2,4.99,0.00,28.4,27.8,00.0,37.4,30.1,15.2,0004.0,0029.14,0009.17,0004.98
2022-04-27 23:35:00,,0820.2,4.99,0.00,28.4,27.8,00.0,37.4,30.1,15.1,0004.1,0028.79,0009.06,0004.97
2022-04-27 23:36:00,,0820.1,5.01,0.00,28.4,27.8,00.0,37.4,30.1,15.2,0005.2,0029.29,0009.08,0004.97
2022-04-27 23:37:00,,0820.1,4.99,0.00,28.4,27.8,00.0,37.4,30.1,15.3,0005.7,0030.09,0009.09,0004.97
2022-04-27 23:38:00,,0820.0,4.99,0.00,28.4,27.8,00.0,37.4,30.1,15.4,0005.3,0031.61,0009.09,0004.96
2022-04-27 23:39:00,,0819.9,4.99,0.00,28.4,27.8,00.0,37.4,30.1,15.2,0004.5,0031.35,0009.04,0004.95
2022-04-27 23:40:00,,0819.9,5.02,0.00,28.4,27.8,00.0,37.4,30.1,15.1,0005.1,0031.66,0009.13,0004.94
2022-04-27 23:41:00,,0819.9,5.00,0.00,28.4,27.8,00.0,37.4,30.1,15.3,0005.2,0030.26,0009.13,0004.94
2022-04-27 23:42:00,,0819.9,4.99,0.00,28.4,27.8,00.0,37.4,30.1,15.3,0005.7,0030.01,0009.19,0004.94
2022-04-27 23:43:00,,0819.9,5.00,0.00,28.4,27.8,00.0,37.4,30.1,15.1,0005.3,0029.51,0009.23,0004.94
2022-04-27 23:44:00,,0819.9,5.00,0.00,28.4,27.8,00.0,37.4,30.1,15.3,0005.0,0028.86,0009.19,0004.93
2022-04-27 23:45:00,,0819.9,4.99,0.00,28.4,27.8,00.0,37.4,30.1,15.3,0004.8,0026.45,0009.16,0004.93
2022-04-27 23:46:00,,0819.9,5.01,0.00,28.4,27.8,00.0,37.4,30.1,15.4,0004.1,0025.80,0009.13,0004.91
2022-04-27 23:47:00,,0819.9,5.01,0.00,28.4,27.8,00.0,37.4,30.1,15.5,0002.4,0024.74,0009.08,0004.91
2022-04-27 23:48:00,,0819.9,4.99,0.00,28.3,27.8,00.0,37.4,30.1,15.4,0001.4,0023.20,0008.91,0004.89
2022-04-27 23:49:00,,0819.9,4.99,0.00,28.3,27.8,00.0,37.4,30.1,15.5,0000.7,0021.59,0008.83,0004.88
2022-04-27 23:50:00,,0819.9,5.02,0.00,28.3,27.8,00.0,37.4,30.1,15.5,0000.6,0021.87,0008.82,0004.89
2022-04-27 23:51:00,,0819.8,4.99,0.00,28.3,27.8,00.0,37.4,30.1,15.4,-000.2,0022.08,0008.76,0004.89
2022-04-27 23:52:00,,0819.9,4.99,0.00,28.3,27.8,00.0,37.4,30.1,15.3,-000.2,0021.89,0008.74,0004.88
2022-04-27 23:53:00,,0819.9,5.00,0.00,28.3,27.8,00.0,37.4,30.1,15.4,-000.1,0021.48,0008.61,0004.85
2022-04-27 23:54:00,,0819.9,5.00,0.00,28.3,27.8,00.0,37.4,30.1,15.4,0000.0,0021.82,0008.47,0004.83
2022-04-27 23:55:00,,0819.9,5.01,0.00,28.4,27.8,00.0,37.4,30.1,15.4,-000.0,0022.68,0008.40,0004.80
2022-04-27 23:56:00,,0819.9,4.98,0.00,28.4,27.9,00.0,37.4,30.1,15.1,-000.9,0023.46,0008.39,0004.78
2022-04-27 23:57:00,,0819.8,4.99,0.00,28.4,27.9,00.0,37.4,30.2,15.2,-001.2,0023.98,0008.46,0004.77
2022-04-27 23:58:00,,0819.9,5.02,0.00,28.4,27.9,00.0,37.4,30.1,15.2,-001.0,0024.02,0008.47,0004.75
2022-04-27 23:59:00,,0819.9,4.99,0.00,28.4,27.9,00.0,37.4,30.1,15.2,-001.0,0024.29,0008.62,0004.76
